PST,Max TemperatureF,Mean TemperatureF,Min TemperatureF,Max Dew PointF,MeanDew PointF,Min DewpointF,Max Humidity, Mean Humidity, Min Humidity, Max Sea Level PressureIn, Mean Sea Level PressureIn, Min Sea Level PressureIn, Max VisibilityMiles, Mean VisibilityMiles, Min VisibilityMiles, Max Wind SpeedMPH, Mean Wind SpeedMPH, Max Gust SpeedMPH,PrecipitationIn, CloudCover, Events, WindDirDegrees
2013-1-1,27,16,5,16,10,1,92,79,63,30.44,30.30,30.14,10,9,2,7,3,,0.00,3,,28
2013-1-2,28,14,1,16,8,-2,92,80,58,30.44,30.28,30.22,10,9,7,7,3,,0.00,1,,51
2013-1-3,28,14,0,15,7,-4,92,79,53,30.33,30.23,30.19,10,9,7,8,3,,0.00,1,,32
2013-1-4,30,16,1,14,7,-1,92,77,51,30.40,30.25,30.20,10,9,7,7,3,,0.00,2,,56
2013-1-5,30,18,5,16,11,2,91,74,51,30.34,30.15,30.02,10,9,4,6,1,,0.00,3,,21
2013-1-6,35,22,10,21,14,7,88,76,54,30.13,30.03,29.99,10,8,6,8,4,,0.00,3,,145
2013-1-7,36,21,6,23,15,3,92,80,59,30.26,30.16,30.12,10,8,5,8,3,,0.00,4,,119
2013-1-8,45,30,14,27,18,12,93,77,48,30.31,30.19,30.14,10,8,5,8,2,,0.00,2,,49
2013-1-9,55,36,16,30,23,14,93,68,38,30.12,29.87,29.61,10,8,5,22,4,33,0.00,5,Snow,180
2013-1-10,37,32,26,24,15,10,69,54,38,29.88,29.81,29.69,10,10,7,24,14,31,0.00,6,Snow,298
2013-1-11,30,16,3,22,17,-2,96,79,50,30.04,29.95,29.86,10,5,0,23,8,30,0.02,7,Fog-Snow,320
2013-1-12,25,12,0,11,3,-6,84,73,53,30.18,30.05,30.01,10,9,2,10,5,,0.01,2,,130
2013-1-13,21,8,-4,9,-1,-11,87,72,55,30.23,30.15,30.05,10,7,0,10,1,,0.00,2,Snow,12
2013-1-14,24,8,-9,8,0,-12,87,71,44,30.38,30.29,30.21,10,10,10,7,3,,0.00,3,,127
2013-1-15,32,16,1,13,7,-2,92,69,40,30.55,30.45,30.36,10,10,10,6,2,,0.00,4,,32
2013-1-16,36,18,1,15,8,-1,92,70,42,30.67,30.48,30.42,10,10,10,8,2,,0.00,0,,62
2013-1-17,35,18,1,16,8,-2,95,74,46,30.58,30.40,30.33,10,9,7,8,3,22,0.00,0,,61
2013-1-18,35,19,3,17,9,0,92,74,46,30.46,30.33,30.28,10,8,2,8,4,,0.00,0,,68
2013-1-19,36,18,1,17,7,-3,92,74,44,30.52,30.38,30.28,10,7,0,7,2,,0.00,1,Fog,71
2013-1-20,37,19,1,17,9,-2,92,75,41,30.50,30.35,30.28,10,8,0,8,3,,0.00,0,Fog,86
2013-1-21,39,21,3,17,11,-1,88,69,38,30.33,30.26,30.19,10,9,6,7,3,,0.00,0,,59
2013-1-22,41,23,5,17,12,1,92,69,38,30.32,30.15,30.09,10,9,7,6,2,,0.00,4,,37
2013-1-23,44,30,17,22,16,11,81,62,35,30.17,30.05,29.99,10,9,7,8,4,,0.00,5,,29
2013-1-24,46,40,33,36,30,23,92,72,51,30.25,30.13,30.06,10,10,7,6,2,,0.00,7,Rain,174
2013-1-25,55,42,30,40,35,29,100,81,55,30.22,30.06,29.96,10,7,0,9,2,,0.01,6,Fog,1
2013-1-26,60,44,28,37,29,22,96,63,28,29.95,29.81,29.71,10,9,4,18,6,,0.00,3,,229
2013-1-27,39,30,18,32,26,14,96,79,48,29.98,29.90,29.78,10,6,1,20,7,38,0.09,7,Snow,330
2013-1-28,39,27,15,26,19,12,88,67,48,30.10,30.00,29.95,10,10,9,15,7,18,0.00,5,Snow,244
2013-1-29,51,43,35,31,28,24,72,56,41,30.25,30.12,30.01,10,10,10,24,10,32,0.00,7,,302
2013-1-30,57,42,26,31,28,22,89,66,33,30.37,30.25,30.22,10,10,10,8,4,,0.00,4,,146
2013-1-31,57,41,25,34,28,22,92,70,37,30.36,30.19,30.11,10,10,10,9,4,,0.00,1,,132